Regional Weather Roundup
Issued by NWS

Home | Current Version | Previous Version | Graphics & Text | Print | Product List | Glossary On
Versions: 1 2 3 4 5 6 7 8 9 10 11 12 13 14 15 16 17 18 19 20 21 22 23 24 25 26 27 28 29 30 31 32 33 34 35 36 37 38 39 40 41 42 43 44 45 46 47 48 49 50
982
ASUS45 KBOI 230710
RWRID

IDAHO REGIONAL WEATHER ROUNDUP
NATIONAL WEATHER SERVICE BOISE ID
100 AM MDT WED MAY 23 2018

NOTE: "FAIR" INDICATES FEW OR NO CLOUDS BELOW 12000 FEET
WITH NO SIGNIFICANT WEATHER AND/OR OBSTRUCTIONS TO VISIBILITY

IDZ012-014-230800-
SOUTHWEST IDAHO


CITY           SKY/WX    TMP DP  RH WIND       PRES   REMARKS
BOISE          PTCLDY    61  51  70 S7        29.84R
CALDWELL       PTCLDY    61  51  70 SE7       29.83S
MOUNTAIN HOME  CLOUDY    58  58  99 SE3       29.85F
$$

IDZ016-017-230800-
SOUTHCENTRAL IDAHO


CITY           SKY/WX    TMP DP  RH WIND       PRES   REMARKS
BURLEY         MOCLDY    54  49  83 CALM      29.90S
JEROME         MOCLDY    56  49  77 E5        29.90S
TWIN FALLS     PTCLDY    52  46  80 S10       29.90S
$$

IDZ019>023-230800-
SOUTHEAST IDAHO


CITY           SKY/WX    TMP DP  RH WIND       PRES   REMARKS
IDAHO FALLS    CLOUDY    56  48  74 S6        29.95S
POCATELLO      CLOUDY    55  52  89 N6        29.93S
REXBURG        CLOUDY    56  46  69 CALM      29.95F
$$

IDZ006-010-011-018-031-032-230800-
CENTRAL IDAHO MOUNTAINS


CITY           SKY/WX    TMP DP  RH WIND       PRES   REMARKS
MCCALL         PTCLDY    47  46  97 CALM      29.91F
HAILEY         CLOUDY    52  46  82 NW7       29.98F
STANLEY          N/A     43  42  97 VRB5      30.01F
SALMON         MOCLDY    56  48  74 CALM      29.93S
CHALLIS        MOCLDY    52  50  93 SE5       29.97S
$$

IDZ002-004-006-007-026-230800-
NORTHERN IDAHO


CITY           SKY/WX    TMP DP  RH WIND       PRES   REMARKS
LEWISTON       PTCLDY    66  55  67 E12       29.79F
LOWELL           N/A     56  56 100 CALM      29.87S
COEUR D`ALENE  PTCLDY    64  50  60 SE8       29.84F
MULLAN PASS    CLEAR     54  41  61 SE7       30.01F
$$




USA.gov is the U.S. government's official web portal to all federal, state and local government web resources and services.